Flag for U.S.A. Weather past 2 weeks in Barrow, Alaska, U.S.A.

Now
28 °F

Sunny.


Feels Like: 17 °F
Forecast: 18 / 24 °F
Wind: 13 mph from Northeast

Location: Post Rogers Memorial Airport

Current Time: Apr 24, 2015 at 5:39:44 PM

Latest Report: Apr 24, 2015 at 4:53 PM


Visibility: 10 mi

Pressure: 29.96 "Hg

Humidity: 78%

Dew point: 22 °F

Location of BarrowLocation

Historic Weather in Barrow — Graph

°F

Barrow temperature yesterday

Maximum temperature yesterday: 27 °F (at 2:53 AM)
Minimum temperature yesterday: 18 °F (at 7:53 AM)
Average temperature yesterday: 22 °F

Past Weeks' High & Low Weather Summary

 TemperatureHumidityPressure
High28 °F (Apr 24, 3:53 PM)96% (Apr 21, 1:53 AM)30.22 "Hg (Apr 21, 1:53 AM)
Low-12 °F (Apr 15, 3:53 AM)57% (Apr 18, 10:53 AM)29.53 "Hg (Apr 10, 9:53 PM)
Average8 °F84%29.80 "Hg
* Reported Apr 9 3:53 PM — Apr 24 3:53 PM, Barrow, Weather by CustomWeather, © 2015

Note: Actual official high and low records may vary slightly from our data, if they occured in-between our weather recording intervals... More about our weather records

Advertising

Barrow weather history for previous 24 hours

 ConditionsComfort  
Time TempWeatherWind HumidityBarometerVisibility
3:53 PM
Fri, Apr 24
28 °FSunny.14 mph75%29.97 "Hg10 mi
2:53 PM27 °FScattered clouds.13 mph78%29.98 "Hg10 mi
1:53 PM27 °FPartly sunny.12 mph81%29.98 "Hg10 mi
12:53 PM26 °FPartly sunny.12 mph81%29.98 "Hg10 mi
11:53 AM26 °FPartly sunny.10 mph81%29.98 "Hg10 mi
10:53 AM27 °FOvercast.9 mph78%29.98 "Hg10 mi
9:53 AM21 °FOvercast.6 mph85%29.98 "Hg10 mi
8:53 AM18 °FSunny.9 mph88%29.98 "Hg10 mi
7:53 AM16 °FOvercast.9 mph87%29.97 "Hg10 mi
6:53 AM16 °FIce fog.5 mph84%29.97 "Hg6 mi
5:53 AM12 °FPassing clouds.5 mph88%29.98 "Hg10 mi
4:53 AM14 °FPassing clouds.3 mph87%29.96 "Hg10 mi
3:53 AM12 °FPassing clouds.6 mph92%29.96 "Hg10 mi
2:53 AM15 °FPassing clouds.3 mph87%29.95 "Hg10 mi
1:53 AM14 °FPassing clouds.5 mph95%29.94 "Hg10 mi
12:53 AM17 °FPassing clouds.7 mph92%29.93 "Hg10 mi
11:53 PM
Thu, Apr 23
19 °FScattered clouds.12 mph88%29.92 "Hg10 mi
10:53 PM23 °FPartly sunny.10 mph88%29.91 "Hg10 mi
9:53 PM26 °FOvercast.9 mph88%29.91 "Hg10 mi
8:53 PM26 °FOvercast.8 mph92%29.90 "Hg10 mi
7:53 PM26 °FOvercast.9 mph92%29.91 "Hg10 mi
6:53 PM25 °FSunny.10 mph92%29.91 "Hg10 mi
5:53 PM26 °FScattered clouds.13 mph92%29.91 "Hg10 mi
Weather by CustomWeather, © 2015

See weather overviewHow to use our weather pages